Location: Bussy-Saint-Georges
(48.8410°N, 2.7017°E)
Time: 21:06:09
(UTC+00:00)

Cosmos 1953 - Pass Details

Date: 18 October 2021
Orbit: 537 x 557 km, 82.5° (Epoch: 06 December)

Event Time Altitude Azimuth Distance (km) Brightness Sun altitude
Rises 18:01:09 0° 183° (S) 2,722 5.9 -11.8°
Reaches altitude 10° 18:03:18 10° 181° (S) 1,835 5.0 -12.2°
Maximum altitude 18:07:20 72° 97° (E) 590 2.2 -12.9°
Drops below altitude 10° 18:11:24 10° 13° (NNE) 1,855 4.9 -13.5°
Sets 18:13:35 0° 12° (NNE) 2,756 5.8 -13.9°
